Time,TemperatureF,DewpointF,PressureIn,WindDirection,WindDirectionDegrees,WindSpeedMPH,WindSpeedGustMPH,Humidity,HourlyPrecipIn,Conditions,Clouds,dailyrainin,SoftwareType,DateUTC
2013-01-08 00:04:00,27.0,25.0,30.35,SSE,166,3.0,5.0,91,0.00,,,0.00,,2013-01-08 05:04:00,
2013-01-08 00:12:00,27.0,25.0,30.35,SSE,166,3.0,5.0,91,0.00,,,0.00,,2013-01-08 05:12:00,
2013-01-08 00:22:00,28.0,26.0,30.35,SSW,194,3.0,5.0,91,0.00,,,0.00,,2013-01-08 05:22:00,
2013-01-08 00:33:00,28.0,26.0,30.34,SE,143,2.0,5.0,91,0.00,,,0.00,,2013-01-08 05:33:00,
2013-01-08 00:43:00,28.0,26.0,30.34,SE,143,2.0,5.0,91,0.00,,,0.00,,2013-01-08 05:43:00,
2013-01-08 00:53:00,28.0,26.0,30.35,SSE,147,3.0,5.0,91,0.00,,,0.00,,2013-01-08 05:53:00,
2013-01-08 01:02:00,28.0,26.0,30.34,SSE,162,2.0,5.0,91,0.00,,,0.00,,2013-01-08 06:02:00,
2013-01-08 01:12:00,28.0,26.0,30.34,SSE,162,2.0,5.0,91,0.00,,,0.00,,2013-01-08 06:12:00,
2013-01-08 01:22:00,29.0,26.0,30.34,South,173,3.0,6.0,90,0.00,,,0.00,,2013-01-08 06:22:00,
2013-01-08 01:33:00,29.0,26.0,30.33,SSW,197,2.0,5.0,90,0.00,,,0.00,,2013-01-08 06:33:00,
2013-01-08 01:42:00,29.0,26.0,30.33,SSW,197,2.0,5.0,90,0.00,,,0.00,,2013-01-08 06:42:00,
2013-01-08 01:53:00,28.0,25.0,30.33,South,169,3.0,6.0,90,0.00,,,0.00,,2013-01-08 06:53:00,
2013-01-08 02:02:00,29.0,27.0,30.33,SSE,148,3.0,6.0,91,0.00,,,0.00,,2013-01-08 07:02:00,
2013-01-08 02:12:00,29.0,27.0,30.33,SSE,148,3.0,6.0,91,0.00,,,0.00,,2013-01-08 07:12:00,
2013-01-08 02:22:00,29.0,27.0,30.32,South,172,4.0,8.0,91,0.00,,,0.00,,2013-01-08 07:22:00,
2013-01-08 02:32:00,30.0,28.0,30.33,SSE,161,3.0,7.0,91,0.00,,,0.00,,2013-01-08 07:32:00,
2013-01-08 02:42:00,30.0,28.0,30.33,SSE,161,3.0,7.0,91,0.00,,,0.00,,2013-01-08 07:42:00,
2013-01-08 02:52:00,30.0,28.0,30.33,SSE,150,3.0,6.0,91,0.00,,,0.00,,2013-01-08 07:52:00,
2013-01-08 03:02:00,30.0,28.0,30.32,South,188,3.0,9.0,91,0.00,,,0.00,,2013-01-08 08:02:00,
2013-01-08 03:12:00,30.0,28.0,30.32,South,188,3.0,9.0,91,0.00,,,0.00,,2013-01-08 08:12:00,
2013-01-08 03:22:00,30.0,28.0,30.32,SSE,164,4.0,7.0,92,0.00,,,0.00,,2013-01-08 08:22:00,
2013-01-08 03:32:00,30.0,28.0,30.31,SSW,204,3.0,8.0,92,0.00,,,0.00,,2013-01-08 08:32:00,
2013-01-08 03:42:00,30.0,28.0,30.31,SSW,204,3.0,8.0,92,0.00,,,0.00,,2013-01-08 08:42:00,
2013-01-08 03:53:00,30.0,28.0,30.31,SSW,198,3.0,7.0,91,0.00,,,0.00,,2013-01-08 08:53:00,
2013-01-08 04:02:00,30.0,27.0,30.30,SSE,155,4.0,8.0,90,0.00,,,0.00,,2013-01-08 09:02:00,
2013-01-08 04:12:00,30.0,27.0,30.30,SSE,155,4.0,8.0,90,0.00,,,0.00,,2013-01-08 09:12:00,
2013-01-08 04:22:00,30.0,27.0,30.30,SSE,163,4.0,10.0,89,0.00,,,0.00,,2013-01-08 09:22:00,
2013-01-08 04:33:00,30.0,27.0,30.29,SSE,149,3.0,7.0,88,0.00,,,0.00,,2013-01-08 09:33:00,
2013-01-08 04:42:00,30.0,27.0,30.29,SSE,149,3.0,7.0,88,0.00,,,0.00,,2013-01-08 09:42:00,
2013-01-08 04:52:00,30.0,26.0,30.29,SE,143,4.0,7.0,86,0.00,,,0.00,,2013-01-08 09:52:00,
2013-01-08 05:02:00,30.0,26.0,30.29,SSE,153,3.0,5.0,86,0.00,,,0.00,,2013-01-08 10:02:00,
2013-01-08 05:12:00,30.0,26.0,30.29,SSE,153,3.0,5.0,86,0.00,,,0.00,,2013-01-08 10:12:00,
2013-01-08 05:22:00,30.0,26.0,30.28,SSE,152,3.0,7.0,86,0.00,,,0.00,,2013-01-08 10:22:00,
2013-01-08 05:32:00,30.0,26.0,30.28,SE,139,3.0,7.0,86,0.00,,,0.00,,2013-01-08 10:32:00,
2013-01-08 05:42:00,30.0,26.0,30.28,SE,139,3.0,7.0,86,0.00,,,0.00,,2013-01-08 10:42:00,
2013-01-08 05:53:00,31.0,27.0,30.28,SW,222,3.0,10.0,85,0.00,,,0.00,,2013-01-08 10:53:00,
2013-01-08 06:02:00,31.0,27.0,30.28,SSW,201,5.0,9.0,84,0.00,,,0.00,,2013-01-08 11:02:00,
2013-01-08 06:12:00,31.0,27.0,30.28,SSW,201,5.0,9.0,84,0.00,,,0.00,,2013-01-08 11:12:00,
2013-01-08 06:22:00,32.0,27.0,30.28,SSE,153,5.0,12.0,82,0.00,,,0.00,,2013-01-08 11:22:00,
2013-01-08 06:33:00,32.0,27.0,30.28,ESE,115,5.0,10.0,82,0.00,,,0.00,,2013-01-08 11:33:00,
2013-01-08 06:42:00,32.0,27.0,30.28,ESE,115,5.0,10.0,82,0.00,,,0.00,,2013-01-08 11:42:00,
2013-01-08 06:53:00,31.0,26.0,30.29,SSE,149,4.0,10.0,81,0.00,,,0.00,,2013-01-08 11:53:00,
2013-01-08 07:03:00,31.0,26.0,30.28,SW,229,6.0,10.0,81,0.00,,,0.00,,2013-01-08 12:03:00,
2013-01-08 07:12:00,31.0,26.0,30.28,SW,229,6.0,10.0,81,0.00,,,0.00,,2013-01-08 12:12:00,
2013-01-08 07:22:00,31.0,26.0,30.29,WSW,238,3.0,10.0,81,0.00,,,0.00,,2013-01-08 12:22:00,
2013-01-08 07:33:00,31.0,26.0,30.29,SSE,163,6.0,14.0,81,0.00,,,0.00,,2013-01-08 12:33:00,
2013-01-08 07:43:00,31.0,26.0,30.29,SSE,163,6.0,14.0,81,0.00,,,0.00,,2013-01-08 12:43:00,
2013-01-08 07:53:00,32.0,27.0,30.29,SSE,156,6.0,11.0,80,0.00,,,0.00,,2013-01-08 12:53:00,
2013-01-08 08:03:00,32.0,26.0,30.29,SW,232,6.0,12.0,79,0.00,,,0.00,,2013-01-08 13:03:00,
2013-01-08 08:12:00,32.0,26.0,30.29,SW,232,6.0,12.0,79,0.00,,,0.00,,2013-01-08 13:12:00,
2013-01-08 08:22:00,33.0,27.0,30.30,SW,226,5.0,11.0,78,0.00,,,0.00,,2013-01-08 13:22:00,
2013-01-08 08:33:00,33.0,27.0,30.30,SW,226,7.0,12.0,78,0.00,,,0.00,,2013-01-08 13:33:00,
2013-01-08 08:43:00,33.0,27.0,30.30,SW,226,7.0,12.0,78,0.00,,,0.00,,2013-01-08 13:43:00,
2013-01-08 08:53:00,33.0,27.0,30.30,SSW,195,6.0,15.0,77,0.00,,,0.00,,2013-01-08 13:53:00,
2013-01-08 09:02:00,34.0,27.0,30.31,WSW,248,5.0,17.0,76,0.00,,,0.00,,2013-01-08 14:02:00,
2013-01-08 09:13:00,34.0,27.0,30.31,WSW,248,5.0,17.0,76,0.00,,,0.00,,2013-01-08 14:13:00,
2013-01-08 09:23:00,35.0,28.0,30.30,SW,226,7.0,18.0,74,0.00,,,0.00,,2013-01-08 14:23:00,
2013-01-08 09:33:00,36.0,28.0,30.31,SW,214,7.0,16.0,72,0.00,,,0.00,,2013-01-08 14:33:00,
2013-01-08 09:43:00,36.0,28.0,30.31,SW,214,7.0,16.0,72,0.00,,,0.00,,2013-01-08 14:43:00,
2013-01-08 09:53:00,36.0,28.0,30.31,SSW,200,8.0,19.0,71,0.00,,,0.00,,2013-01-08 14:53:00,
2013-01-08 10:03:00,37.0,28.0,30.30,South,177,7.0,16.0,69,0.00,,,0.00,,2013-01-08 15:03:00,
2013-01-08 10:12:00,37.0,28.0,30.30,South,177,7.0,16.0,69,0.00,,,0.00,,2013-01-08 15:12:00,
2013-01-08 10:23:00,38.0,28.0,30.30,SW,231,8.0,21.0,67,0.00,,,0.00,,2013-01-08 15:23:00,
2013-01-08 10:33:00,39.0,29.0,30.30,SSW,201,8.0,16.0,66,0.00,,,0.00,,2013-01-08 15:33:00,
2013-01-08 10:43:00,39.0,29.0,30.30,SSW,201,8.0,16.0,66,0.00,,,0.00,,2013-01-08 15:43:00,
2013-01-08 10:53:00,40.0,28.0,30.30,SSW,198,10.0,18.0,63,0.00,,,0.00,,2013-01-08 15:53:00,
2013-01-08 11:03:00,40.0,28.0,30.28,SSE,160,5.0,17.0,63,0.00,,,0.00,,2013-01-08 16:03:00,
2013-01-08 11:13:00,40.0,28.0,30.28,SSE,160,5.0,17.0,63,0.00,,,0.00,,2013-01-08 16:13:00,
2013-01-08 11:23:00,41.0,29.0,30.28,SE,128,6.0,18.0,61,0.00,,,0.00,,2013-01-08 16:23:00,
2013-01-08 11:34:00,41.0,28.0,30.27,SSW,198,7.0,16.0,60,0.00,,,0.00,,2013-01-08 16:34:00,
2013-01-08 11:43:00,41.0,28.0,30.27,SSW,198,7.0,16.0,60,0.00,,,0.00,,2013-01-08 16:43:00,
2013-01-08 11:53:00,42.0,29.0,30.26,SSW,200,9.0,18.0,59,0.00,,,0.00,,2013-01-08 16:53:00,
2013-01-08 12:03:00,42.0,28.0,30.25,SSW,200,5.0,18.0,57,0.00,,,0.00,,2013-01-08 17:03:00,
2013-01-08 12:13:00,42.0,28.0,30.25,SSW,200,5.0,18.0,57,0.00,,,0.00,,2013-01-08 17:13:00,
2013-01-08 12:23:00,43.0,28.0,30.25,SSW,193,6.0,16.0,56,0.00,,,0.00,,2013-01-08 17:23:00,
2013-01-08 12:34:00,43.0,28.0,30.24,SSE,157,7.0,21.0,55,0.00,,,0.00,,2013-01-08 17:34:00,
2013-01-08 12:43:00,43.0,28.0,30.24,SSE,157,7.0,21.0,55,0.00,,,0.00,,2013-01-08 17:43:00,
2013-01-08 12:54:00,44.0,28.0,30.24,SSW,208,3.0,15.0,53,0.00,,,0.00,,2013-01-08 17:54:00,
2013-01-08 13:04:00,45.0,28.0,30.24,South,180,5.0,13.0,52,0.00,,,0.00,,2013-01-08 18:04:00,
2013-01-08 13:13:00,45.0,28.0,30.24,South,180,5.0,13.0,52,0.00,,,0.00,,2013-01-08 18:13:00,
2013-01-08 13:23:00,45.0,27.0,30.24,SW,236,6.0,13.0,50,0.00,,,0.00,,2013-01-08 18:23:00,
2013-01-08 13:33:00,45.0,27.0,30.24,WSW,243,4.0,14.0,50,0.00,,,0.00,,2013-01-08 18:33:00,
2013-01-08 13:43:00,45.0,27.0,30.24,WSW,243,4.0,14.0,50,0.00,,,0.00,,2013-01-08 18:43:00,
2013-01-08 13:53:00,46.0,28.0,30.24,SW,228,5.0,12.0,49,0.00,,,0.00,,2013-01-08 18:53:00,
2013-01-08 14:03:00,45.0,27.0,30.24,SW,214,7.0,13.0,48,0.00,,,0.00,,2013-01-08 19:03:00,
2013-01-08 14:12:00,45.0,27.0,30.24,SW,214,7.0,13.0,48,0.00,,,0.00,,2013-01-08 19:12:00,
2013-01-08 14:23:00,45.0,27.0,30.24,WSW,245,6.0,10.0,49,0.00,,,0.00,,2013-01-08 19:23:00,
2013-01-08 14:33:00,45.0,27.0,30.24,West,267,5.0,10.0,49,0.00,,,0.00,,2013-01-08 19:33:00,
2013-01-08 14:43:00,45.0,27.0,30.24,West,267,5.0,10.0,49,0.00,,,0.00,,2013-01-08 19:43:00,
2013-01-08 14:53:00,46.0,28.0,30.25,SSE,153,6.0,9.0,49,0.00,,,0.00,,2013-01-08 19:53:00,
2013-01-08 15:03:00,45.0,27.0,30.26,WNW,283,5.0,11.0,49,0.00,,,0.00,,2013-01-08 20:03:00,
2013-01-08 15:12:00,45.0,27.0,30.26,WNW,283,5.0,11.0,49,0.00,,,0.00,,2013-01-08 20:12:00,
2013-01-08 15:23:00,45.0,27.0,30.26,SSW,201,5.0,11.0,50,0.00,,,0.00,,2013-01-08 20:23:00,
2013-01-08 15:33:00,45.0,27.0,30.26,SSW,204,5.0,9.0,50,0.00,,,0.00,,2013-01-08 20:33:00,
2013-01-08 15:43:00,45.0,27.0,30.26,SSW,204,5.0,9.0,50,0.00,,,0.00,,2013-01-08 20:43:00,
2013-01-08 15:54:00,44.0,28.0,30.26,South,169,5.0,12.0,52,0.00,,,0.00,,2013-01-08 20:54:00,
2013-01-08 16:03:00,44.0,28.0,30.26,SSW,201,5.0,9.0,52,0.00,,,0.00,,2013-01-08 21:03:00,
2013-01-08 16:13:00,44.0,28.0,30.26,SSW,201,5.0,9.0,52,0.00,,,0.00,,2013-01-08 21:13:00,
2013-01-08 16:23:00,44.0,28.0,30.27,SW,215,5.0,9.0,52,0.00,,,0.00,,2013-01-08 21:23:00,
2013-01-08 16:33:00,43.0,28.0,30.27,SW,224,3.0,7.0,54,0.00,,,0.00,,2013-01-08 21:33:00,
2013-01-08 16:43:00,43.0,28.0,30.27,SW,224,3.0,7.0,54,0.00,,,0.00,,2013-01-08 21:43:00,
2013-01-08 16:53:00,42.0,27.0,30.27,SSW,197,1.0,4.0,56,0.00,,,0.00,,2013-01-08 21:53:00,
2013-01-08 17:03:00,42.0,28.0,30.27,SSE,155,2.0,6.0,57,0.00,,,0.00,,2013-01-08 22:03:00,
2013-01-08 17:12:00,42.0,28.0,30.27,SSE,155,2.0,6.0,57,0.00,,,0.00,,2013-01-08 22:12:00,
2013-01-08 17:23:00,41.0,27.0,30.27,SSW,210,3.0,5.0,58,0.00,,,0.00,,2013-01-08 22:23:00,
2013-01-08 17:33:00,41.0,28.0,30.28,SSW,197,2.0,3.0,59,0.00,,,0.00,,2013-01-08 22:33:00,
2013-01-08 17:43:00,41.0,28.0,30.28,SSW,197,2.0,3.0,59,0.00,,,0.00,,2013-01-08 22:43:00,
2013-01-08 17:53:00,40.0,28.0,30.29,SSE,148,2.0,3.0,61,0.00,,,0.00,,2013-01-08 22:53:00,
2013-01-08 18:03:00,40.0,28.0,30.29,SSW,200,3.0,6.0,62,0.00,,,0.00,,2013-01-08 23:03:00,
2013-01-08 18:13:00,40.0,28.0,30.29,SSW,200,3.0,6.0,62,0.00,,,0.00,,2013-01-08 23:13:00,
2013-01-08 18:22:00,40.0,28.0,30.29,SSW,195,2.0,4.0,62,0.00,,,0.00,,2013-01-08 23:22:00,
2013-01-08 18:33:00,39.0,28.0,30.30,South,191,2.0,4.0,64,0.00,,,0.00,,2013-01-08 23:33:00,
2013-01-08 18:43:00,39.0,28.0,30.30,South,191,2.0,4.0,64,0.00,,,0.00,,2013-01-08 23:43:00,
2013-01-08 18:53:00,39.0,28.0,30.30,SSW,200,3.0,5.0,64,0.00,,,0.00,,2013-01-08 23:53:00,
2013-01-08 19:03:00,39.0,28.0,30.31,SSW,201,2.0,4.0,65,0.00,,,0.00,,2013-01-09 00:03:00,
2013-01-08 19:13:00,39.0,28.0,30.31,SSW,201,2.0,4.0,65,0.00,,,0.00,,2013-01-09 00:13:00,
2013-01-08 19:22:00,38.0,27.0,30.32,SSE,155,1.0,4.0,65,0.00,,,0.00,,2013-01-09 00:22:00,
2013-01-08 19:33:00,38.0,28.0,30.32,SSW,212,2.0,3.0,66,0.00,,,0.00,,2013-01-09 00:33:00,
2013-01-08 19:43:00,38.0,28.0,30.32,SSW,212,2.0,3.0,66,0.00,,,0.00,,2013-01-09 00:43:00,
2013-01-08 19:53:00,38.0,28.0,30.32,South,170,2.0,4.0,66,0.00,,,0.00,,2013-01-09 00:53:00,
2013-01-08 20:02:00,38.0,28.0,30.32,SW,226,2.0,4.0,67,0.00,,,0.00,,2013-01-09 01:02:00,
2013-01-08 20:12:00,38.0,28.0,30.32,SW,226,2.0,4.0,67,0.00,,,0.00,,2013-01-09 01:12:00,
2013-01-08 20:22:00,38.0,28.0,30.32,SW,229,2.0,5.0,67,0.00,,,0.00,,2013-01-09 01:22:00,
2013-01-08 20:33:00,38.0,28.0,30.32,South,176,3.0,7.0,66,0.00,,,0.00,,2013-01-09 01:33:00,
2013-01-08 20:42:00,38.0,28.0,30.32,South,176,3.0,7.0,66,0.00,,,0.00,,2013-01-09 01:42:00,
2013-01-08 20:53:00,38.0,28.0,30.33,SSE,158,3.0,6.0,66,0.00,,,0.00,,2013-01-09 01:53:00,
2013-01-08 21:02:00,38.0,28.0,30.33,SSW,197,2.0,6.0,67,0.00,,,0.00,,2013-01-09 02:02:00,
2013-01-08 21:12:00,38.0,28.0,30.33,SSW,197,2.0,6.0,67,0.00,,,0.00,,2013-01-09 02:12:00,
2013-01-08 21:22:00,37.0,28.0,30.33,SSW,204,2.0,4.0,69,0.00,,,0.00,,2013-01-09 02:22:00,
2013-01-08 21:33:00,38.0,28.0,30.32,SSW,205,3.0,7.0,68,0.00,,,0.00,,2013-01-09 02:33:00,
2013-01-08 21:43:00,38.0,28.0,30.32,SSW,205,3.0,7.0,68,0.00,,,0.00,,2013-01-09 02:43:00,
2013-01-08 21:53:00,38.0,28.0,30.32,SW,236,6.0,10.0,68,0.00,,,0.00,,2013-01-09 02:53:00,
2013-01-08 22:03:00,37.0,28.0,30.32,South,191,4.0,9.0,69,0.00,,,0.00,,2013-01-09 03:03:00,
2013-01-08 22:12:00,37.0,28.0,30.32,South,191,4.0,9.0,69,0.00,,,0.00,,2013-01-09 03:12:00,
2013-01-08 22:22:00,38.0,28.0,30.33,SW,224,3.0,9.0,68,0.00,,,0.00,,2013-01-09 03:22:00,
2013-01-08 22:33:00,38.0,28.0,30.33,West,277,2.0,5.0,68,0.00,,,0.00,,2013-01-09 03:33:00,
2013-01-08 22:43:00,38.0,28.0,30.33,West,277,2.0,5.0,68,0.00,,,0.00,,2013-01-09 03:43:00,
2013-01-08 22:53:00,37.0,28.0,30.33,SSW,207,2.0,4.0,69,0.00,,,0.00,,2013-01-09 03:53:00,
2013-01-08 23:02:00,37.0,27.0,30.33,WSW,238,2.0,5.0,68,0.00,,,0.00,,2013-01-09 04:02:00,
2013-01-08 23:12:00,37.0,27.0,30.33,WSW,238,2.0,5.0,68,0.00,,,0.00,,2013-01-09 04:12:00,
2013-01-08 23:22:00,37.0,27.0,30.33,West,263,1.0,2.0,68,0.00,,,0.00,,2013-01-09 04:22:00,
2013-01-08 23:33:00,36.0,27.0,30.34,SW,219,0.0,2.0,70,0.00,,,0.00,,2013-01-09 04:33:00,
2013-01-08 23:42:00,36.0,27.0,30.34,SW,219,0.0,2.0,70,0.00,,,0.00,,2013-01-09 04:42:00,
2013-01-08 23:52:00,35.0,27.0,30.34,West,272,0.0,0.0,71,0.00,,,0.00,,2013-01-09 04:52:00,